Location: Maccacari
(45.1333°N, 11.1333°E)
Time: 08:40:19
(UTC+00:00)

Cosmos 1898 Rocket - Pass Details

Date: 18 September 2020
Orbit: 753 x 784 km, 74.0° (Epoch: 29 October)

Event Time Altitude Azimuth Distance (km) Brightness Sun altitude
Rises 18:23:40 0° 211° (SSW) 3,193 6.9 -11.9°
Reaches altitude 10° 18:26:03 10° 215° (SW) 2,271 6.2 -12.3°
Maximum altitude 18:31:08 58° 295° (WNW) 879 4.2 -13.2°
Drops below altitude 10° 18:36:14 10° 14° (NNE) 2,291 6.0 -14.1°
Sets 18:38:40 0° 19° (NNE) 3,223 6.7 -14.5°
